572 visiteurs
Prévisions de votre ville :
Vigilance : 1 département Mise à jour le 15/11/2018 à 10:01 - Voir la carte

Paris Roissy CDG (95380) le 15/11/2018 à 14:30 Choisir station

9°C 93 % SE Vit. moyenne 15 kmh/h

Relevés météo quotidiens pour la station de :

UTC
S: Synop
M: Metar
Loc T°C
(°C)
Td
(°C)
HR
(%)
Vis
(km)
Néb
(octa)
Vent
(km/h)
Pression
(mb)
Précipitations
(mm)
Temps
              MOY
10 min
DIR RAF 1h MESURE VAR SUR 3h    
S 00 h 01h 16.4 12.7 79 40 8/8 7 19 1018.1 -0.5/3h 0.0/6h - 0.0/3h
S 01 h 02h 14.3 12.5 89 45 /8 6 15 1017.5 -1.1/3h 0.0/1h
S 02 h 03h 14.1 12.8 92 40 8/8 4 6 1017.1 -1.5/3h 0.0/1h
S 03 h 04h 16.3 14.1 87 19 8/8 7 13 1016.5 -1.6/3h 0.2/3h
S 04 h 05h 17.3 13.4 78 60 8/8 13 28 1016.2 -1.3/3h 0.0/1h
S 05 h 06h 17.3 13.8 80 60 8/8 15 26 1015.9 -1.2/3h 0.0/1h
S 06 h 07h 17.4 13.9 80 60 8/8 13 26 1015.9 -0.6/3h 0.2/12h - 0.2/3h
S 07 h 08h 17.6 14.3 81 60 8/8 7 13 1015.7 -0.5/3h 0.0/1h
S 08 h 09h 16.8 15.0 89 35 8/8 20 31 1015.5 -0.4/3h 3.0/1h
S 09 h 10h 16.6 15.0 90 19 8/8 13 39 1015.2 -0.7/3h 4.0/3h
S 10 h 11h 19.2 15.1 77 16 7/8 13 20 1015.2 -0.5/3h 0.0/1h
S 11 h 12h 18.7 13.5 72 18 8/8 26 43 1015.1 -0.4/3h 0.0/1h
S 12 h 13h 19.0 14.9 77 10 7/8 24 43 1014.7 -0.5/3h 4.0/6h - 0.0/3h
S 13 h 14h 18.4 13.9 75 20 7/8 24 46 1013.9 -1.3/3h 0.0/1h
S 14 h 15h 18.4 13.7 74 22 7/8 28 44 1013.8 -1.3/3h 0.0/1h
S 15 h 16h 17.9 14.2 79 19 8/8 9 20 1014.7 0.0/3h 0.0/1h
S 16 h 17h 16.2 14.6 90 3.4 8/8 13 26 1014.2 +0.3/3h 4.0/1h
S 17 h 18h 16.5 14.7 89 35 8/8 17 30 1013.6 -0.2/3h 1.0/1h
S 18 h 19h 17.5 15.3 87 18 8/8 31 56 1013.8 -0.9/3h 9.0/12h - 5.0/3h
S 19 h 20h 17.4 15.2 87 8 8/8 13 26 1014.5 +0.3/3h 4.0/1h
S 20 h 21h 17.8 14.9 83 19 8/8 22 54 1015.0 +1.4/3h 0.0/1h
S 21 h 22h 17.5 13.6 78 17 8/8 19 39 1015.2 +1.4/3h 4.0/3h
S 22 h 23h 18.0 13.1 73 60 8/8 20 33 1015.2 +0.7/3h 0.0/1h
S 23 h 00h 17.8 13.3 75 60 6/8 9 19 1014.9 -0.1/3h 0.0/1h
evolution des temperatures
cumul des precipitations
vent moyen et rafales
pression atmospherique

Un tiret (-) signifie que les données ne sont pas disponibles.

Passez la souris sur les pictos temps pour avoir plus de précisions. Passez les flèches sur l'icône de la direction du vent pour voir la direction précise en degrés.

Les données de l'heure en cours sont disponibles à partir de H+15 minutes.


S signifie station Synop, plus complète qu'une station Metar (M). Il y a +1h de différence entre l'heure UTC et l'heure légale en hiver et +2h en été.

Td est la mesure du point de rosée.

HR est l'humidité relative/p>

Vis est la visibilité

Néb est la nébulosité du ciel (couverture nuageuse) exprimée en octas (de 0/8 à 8/8).

Vent moy 10 min donne le vent moyen sur les 10 minutes qui précèdent le relevé.

Vent raf 1h donne la rafale maximale mesurée dans l'heure qui précède le relevé.


Les données les plus anciennes remontent à avril 2014.

Les données présentées sur cette page proviennent des stations météo officielles. Les relevés sont effectués aux normes en vigueur (anémomètre à 10m de haut, thermomètre sous abri normalisé à 2m du sol...)

Météo 60 décline toute responsabilité en cas d'absence de données, d'erreurs, de mauvaise utilisation ou interprétation et n'est pas habilité à fournir des certificats intempéries.